Overview Statistics Trail Chart Weather Telemetry Raw packets
 

This is the latest recevied weather packets stored in our database for station/object W4UWO. If no packets are shown the sender has not sent any weather packets the latest 10 day(s).

<< 16 17 18 19 20 21 22 >>
Time Temp. Humidity Pressure Rain* Wind** Luminosity Snow
1788509708 25.56° C 86% 1016.6 hPa 0 mm - 0 W/m² -
1788509404 25° C 87% 1016.4 hPa 0 mm - 0 W/m² -
1788509099 25° C 87% 1016.5 hPa 0 mm - 0 W/m² -
1788508794 25° C 88% 1016.2 hPa 0 mm - 0 W/m² -
1788508495 25° C 87% 1016.4 hPa 0 mm - 0 W/m² -
1788508190 25° C 87% 1016 hPa 0 mm - 0 W/m² -
1788507885 25.56° C 87% 1016.5 hPa 0 mm - 0 W/m² -
1788507579 25.56° C 86% 1016.5 hPa 0 mm - 0 W/m² -
1788507276 25.56° C 86% 1016.5 hPa 0 mm - 0 W/m² -
1788506971 25° C 87% 1016.5 hPa 0 mm - 0 W/m² -
1788506666 25° C 87% 1016.6 hPa 0 mm - 0 W/m² -
1788506361 25.56° C 86% 1016.4 hPa 0 mm - 0 W/m² -
1788506057 25.56° C 86% 1016.5 hPa 0 mm - 0 W/m² -
1788505751 26.11° C 84% 1016.5 hPa 0 mm - 0 W/m² -
1788505451 26.11° C 85% 1016.5 hPa 0 mm - 0 W/m² -
1788505150 26.11° C 83% 1016.4 hPa 0 mm - 0 W/m² -
1788504847 25.56° C 85% 1016.5 hPa 0 mm - 0 W/m² -
1788504546 25.56° C 86% 1016.6 hPa 0 mm - 0 W/m² -
1788504243 25.56° C 86% 1016.5 hPa 0 mm - 0 W/m² -
1788503938 25.56° C 85% 1016.8 hPa 0 mm - 0 W/m² -
1788503634 25.56° C 85% 1016.8 hPa 0 mm - 0 W/m² -
1788503329 26.11° C 85% 1016.7 hPa 0 mm - 0 W/m² -
1788503025 26.11° C 84% 1016.7 hPa 0 mm - 0 W/m² -
1788502721 26.11° C 84% 1016.8 hPa 0 mm - 0 W/m² -
1788502417 26.67° C 83% 1016.6 hPa 0 mm - 0 W/m² -

* Rain latest hour (hover to see other rain measurements)
** Current wind speed in m/s (hover to see current wind gust speed)